Home   Weather   Fresno   Past weeks

Flag for USA Past Weather in Fresno, California, USA — Yesterday and Last 2 Weeks

Now
65 °F

Clear.


Feels Like: 65 °F
Forecast: 68 / 96 °F
Wind: 5 mph from East

Location: Fresno Air Terminal

Current Time: Sep 27, 2016 at 6:59:55 AM

Latest Report: Sep 27, 2016 at 5:53 AM


Visibility: 10 mi

Pressure: 29.90 "Hg

Humidity: 51%

Dew Point: 46 °F

Location of FresnoLocation

Past Weather in Fresno — Graph

°F

Fresno Temperature Yesterday

Maximum temperature yesterday: 97 °F (at 3:53 PM)
Minimum temperature yesterday: 64 °F (at 6:53 AM)
Average temperature yesterday: 81 °F

High & Low Weather Summary for the Past Weeks

 TemperatureHumidityPressure
High104 °F (Sep 19, 4:53 PM)74% (Sep 13, 5:53 AM)30.13 "Hg (Sep 13, 5:53 AM)
Low52 °F (Sep 23, 6:53 AM)8% (Sep 19, 4:53 PM)29.72 "Hg (Sep 12, 6:53 PM)
Average74 °F37%29.95 "Hg
* Reported Sep 12 5:53 AM — Sep 27 5:53 AM, Fresno, Weather by CustomWeather, © 2016

Note: Actual official high and low records may vary slightly from our data, if they occured in-between our weather recording intervals... More about our weather records

Advertising

Fresno Weather History for the Previous 24 Hours

Scroll right to see more
 ConditionsComfort  
Time TempWeatherWind HumidityBarometerVisibility
5:53 AM
Tue, Sep 27
65 °FClear.5 mph51%29.90 "Hg10 mi
4:53 AM65 °FClear.3 mph54%29.90 "Hg10 mi
3:53 AM66 °FClear.No wind54%29.89 "Hg10 mi
2:53 AM69 °FClear.3 mph51%29.89 "Hg10 mi
1:53 AM70 °FClear.No wind46%29.89 "Hg10 mi
12:53 AM71 °FClear.No wind42%29.90 "Hg10 mi
11:53 PM
Mon, Sep 26
76 °FClear.6 mph37%29.90 "Hg10 mi
10:53 PM78 °FPassing clouds.No wind33%29.90 "Hg10 mi
9:53 PM79 °FPassing clouds.No wind32%29.90 "Hg9 mi
8:53 PM82 °FPassing clouds.No wind29%29.90 "Hg10 mi
7:53 PM87 °FPassing clouds.No wind21%29.89 "Hg10 mi
6:53 PM92 °FPassing clouds.3 mph16%29.88 "Hg10 mi
5:53 PM95 °FPassing clouds.6 mph14%29.89 "Hg10 mi
4:53 PM97 °FPassing clouds.7 mph12%29.89 "Hg10 mi
3:53 PM97 °FSunny.5 mph10%29.91 "Hg10 mi
2:53 PM96 °FSunny.6 mph11%29.93 "Hg10 mi
1:53 PM95 °FSunny.7 mph15%29.96 "Hg10 mi
12:53 PM92 °FSunny.6 mph18%29.98 "Hg10 mi
11:53 AM90 °FSunny.3 mph19%30.01 "Hg10 mi
10:53 AM85 °FSunny.5 mph20%30.03 "Hg10 mi
9:53 AM79 °FSunny.6 mph24%30.04 "Hg10 mi
8:53 AM74 °FSunny.9 mph28%30.03 "Hg10 mi
7:53 AM67 °FSunny.7 mph39%30.02 "Hg10 mi
6:53 AM64 °FScattered clouds.No wind45%30.00 "Hg10 mi
Weather by CustomWeather, © 2016

See weather overviewHow to use our weather pages